Time,TemperatureF,DewpointF,PressureIn,WindDirection,WindDirectionDegrees,WindSpeedMPH,WindSpeedGustMPH,Humidity,HourlyPrecipIn,Conditions,Clouds,dailyrainin,SoftwareType,DateUTC
2013-04-09 00:00:00,48.6,45.7,30.08,SSE,166,6.0,8.0,90,0.00,,,0.00,meteohub,2013-04-09 04:00:00,
2013-04-09 00:05:00,48.6,46.0,30.08,SE,135,2.0,11.0,91,0.00,,,0.00,meteohub,2013-04-09 04:05:00,
2013-04-09 00:10:00,48.6,46.0,30.08,SE,132,4.0,11.0,91,0.00,,,0.00,meteohub,2013-04-09 04:10:00,
2013-04-09 00:15:00,48.6,46.0,30.08,SSE,162,7.0,11.0,91,0.00,,,0.00,meteohub,2013-04-09 04:15:00,
2013-04-09 00:20:00,48.6,46.0,30.08,SE,141,6.0,11.0,91,0.00,,,0.00,meteohub,2013-04-09 04:20:00,
2013-04-09 00:25:00,48.7,46.6,30.08,South,170,5.0,11.0,92,0.00,,,0.00,meteohub,2013-04-09 04:25:00,
2013-04-09 00:30:00,48.7,46.6,30.08,ESE,115,3.0,11.0,92,0.00,,,0.00,meteohub,2013-04-09 04:30:00,
2013-04-09 00:36:00,48.7,46.6,30.08,SE,130,6.0,11.0,92,0.00,,,0.00,meteohub,2013-04-09 04:36:00,
2013-04-09 00:41:00,48.6,46.4,30.08,SSE,158,10.0,12.0,92,0.00,,,0.00,meteohub,2013-04-09 04:41:00,
2013-04-09 00:46:00,48.6,46.4,30.08,SSE,161,7.0,12.0,92,0.00,,,0.00,meteohub,2013-04-09 04:46:00,
2013-04-09 00:51:00,48.4,46.2,30.07,SE,128,3.0,12.0,92,0.00,,,0.00,meteohub,2013-04-09 04:51:00,
2013-04-09 00:56:00,48.4,46.2,30.06,SSE,156,6.0,13.0,92,0.00,,,0.00,meteohub,2013-04-09 04:56:00,
2013-04-09 01:01:00,48.0,45.9,30.06,SE,124,7.0,13.0,92,0.00,,,0.00,meteohub,2013-04-09 05:01:00,
2013-04-09 01:06:00,47.8,45.9,30.06,ESE,108,8.0,12.0,93,0.00,,,0.00,meteohub,2013-04-09 05:06:00,
2013-04-09 01:11:00,47.7,45.7,30.06,SSE,159,3.0,11.0,93,0.00,,,0.00,meteohub,2013-04-09 05:11:00,
2013-04-09 01:16:00,47.7,45.7,30.06,ESE,115,3.0,12.0,93,0.00,,,0.00,meteohub,2013-04-09 05:16:00,
2013-04-09 01:21:00,47.7,46.0,30.06,SE,133,3.0,12.0,94,0.00,,,0.00,meteohub,2013-04-09 05:21:00,
2013-04-09 01:26:00,47.7,46.0,30.06,ENE,77,2.0,11.0,94,0.00,,,0.00,meteohub,2013-04-09 05:26:00,
2013-04-09 01:28:00,47.7,46.0,30.06,SE,141,3.0,11.0,94,0.00,,,0.00,meteohub,2013-04-09 05:28:00,
2013-04-09 01:32:00,47.7,46.0,30.06,SE,131,2.0,11.0,94,0.00,,,0.00,meteohub,2013-04-09 05:32:00,
2013-04-09 01:37:00,47.8,46.2,30.05,ESE,110,3.0,8.0,94,0.00,,,0.00,meteohub,2013-04-09 05:37:00,
2013-04-09 01:44:00,47.8,46.4,30.04,ESE,120,2.0,8.0,95,0.00,,,0.00,meteohub,2013-04-09 05:44:00,
2013-04-09 01:49:00,48.0,46.6,30.04,ESE,120,3.0,11.0,95,0.00,,,0.00,meteohub,2013-04-09 05:49:00,
2013-04-09 01:54:00,48.0,46.6,30.04,South,188,1.0,11.0,95,0.00,,,0.00,meteohub,2013-04-09 05:54:00,
2013-04-09 01:59:00,48.0,46.6,30.04,East,86,5.0,9.0,95,0.00,,,0.00,meteohub,2013-04-09 05:59:00,
2013-04-09 02:04:00,48.2,46.8,30.04,East,98,3.0,9.0,95,0.00,,,0.00,meteohub,2013-04-09 06:04:00,
2013-04-09 02:09:00,48.4,46.9,30.04,East,82,1.0,8.0,95,0.00,,,0.00,meteohub,2013-04-09 06:09:00,
2013-04-09 02:14:00,48.6,47.1,30.03,East,101,6.0,8.0,95,0.00,,,0.00,meteohub,2013-04-09 06:14:00,
2013-04-09 02:19:00,48.7,47.3,30.02,East,101,1.0,8.0,95,0.00,,,0.00,meteohub,2013-04-09 06:19:00,
2013-04-09 02:24:00,48.7,47.3,30.03,East,96,4.0,10.0,95,0.00,,,0.00,meteohub,2013-04-09 06:24:00,
2013-04-09 02:29:00,48.9,47.5,30.02,SSE,158,9.0,10.0,95,0.00,,,0.00,meteohub,2013-04-09 06:29:00,
2013-04-09 02:34:00,48.9,47.5,30.02,South,174,0.0,10.0,95,0.00,,,0.00,meteohub,2013-04-09 06:34:00,
2013-04-09 02:39:00,49.1,47.7,30.01,SSE,156,5.0,9.0,95,0.00,,,0.00,meteohub,2013-04-09 06:39:00,
2013-04-09 02:44:00,49.1,47.7,30.01,SE,144,8.0,9.0,95,0.00,,,0.00,meteohub,2013-04-09 06:44:00,
2013-04-09 02:49:00,49.3,47.8,30.02,SE,145,3.0,9.0,95,0.00,,,0.00,meteohub,2013-04-09 06:49:00,
2013-04-09 02:54:00,49.3,48.2,30.01,SE,134,2.0,12.0,96,0.00,,,0.00,meteohub,2013-04-09 06:54:00,
2013-04-09 03:00:00,49.3,47.8,30.00,SSW,204,2.0,12.0,95,0.00,,,0.00,meteohub,2013-04-09 07:00:00,
2013-04-09 03:05:00,49.3,47.8,30.00,ESE,120,3.0,12.0,95,0.00,,,0.00,meteohub,2013-04-09 07:05:00,
2013-04-09 03:10:00,49.3,47.8,30.00,SSE,153,1.0,10.0,95,0.00,,,0.00,meteohub,2013-04-09 07:10:00,
2013-04-09 03:15:00,49.3,47.8,30.00,SSE,151,3.0,10.0,95,0.00,,,0.00,meteohub,2013-04-09 07:15:00,
2013-04-09 03:20:00,49.1,47.7,30.01,SSE,148,3.0,10.0,95,0.00,,,0.00,meteohub,2013-04-09 07:20:00,
2013-04-09 03:25:00,49.1,47.7,30.00,SE,140,1.0,10.0,95,0.00,,,0.00,meteohub,2013-04-09 07:25:00,
2013-04-09 03:30:00,48.9,47.5,30.00,ESE,122,0.0,8.0,95,0.00,,,0.00,meteohub,2013-04-09 07:30:00,
2013-04-09 03:35:00,48.9,47.5,30.00,SE,131,2.0,7.0,95,0.00,,,0.00,meteohub,2013-04-09 07:35:00,
2013-04-09 03:40:00,48.9,47.5,30.00,SE,135,4.0,7.0,95,0.00,,,0.00,meteohub,2013-04-09 07:40:00,
2013-04-09 03:45:00,48.9,47.5,30.00,SSE,155,2.0,7.0,95,0.00,,,0.00,meteohub,2013-04-09 07:45:00,
2013-04-09 03:50:00,48.9,47.8,29.99,SSE,163,7.0,8.0,96,0.00,,,0.00,meteohub,2013-04-09 07:50:00,
2013-04-09 03:55:00,48.9,47.8,29.99,East,99,2.0,8.0,96,0.00,,,0.00,meteohub,2013-04-09 07:55:00,
2013-04-09 04:00:00,48.9,47.8,30.00,North,349,1.0,8.0,96,0.00,,,0.00,meteohub,2013-04-09 08:00:00,
2013-04-09 04:05:00,48.9,47.8,30.01,East,96,1.0,7.0,96,0.00,,,0.00,meteohub,2013-04-09 08:05:00,
2013-04-09 04:10:00,48.9,47.8,30.00,SE,141,2.0,6.0,96,0.00,,,0.00,meteohub,2013-04-09 08:10:00,
2013-04-09 04:15:00,48.9,47.8,29.99,SE,138,1.0,4.0,96,0.00,,,0.00,meteohub,2013-04-09 08:15:00,
2013-04-09 04:20:00,48.9,47.8,29.99,SE,141,1.0,4.0,96,0.00,,,0.00,meteohub,2013-04-09 08:20:00,
2013-04-09 04:25:00,48.9,47.8,29.99,SSE,168,2.0,4.0,96,0.00,,,0.00,meteohub,2013-04-09 08:25:00,
2013-04-09 04:30:00,48.9,47.8,29.98,SE,143,1.0,4.0,96,0.00,,,0.00,meteohub,2013-04-09 08:30:00,
2013-04-09 04:35:00,48.9,47.8,29.98,ESE,108,1.0,4.0,96,0.00,,,0.00,meteohub,2013-04-09 08:35:00,
2013-04-09 04:40:00,48.9,47.8,29.98,SE,132,3.0,4.0,96,0.00,,,0.00,meteohub,2013-04-09 08:40:00,
2013-04-09 04:45:00,48.7,47.7,29.98,SE,128,1.0,5.0,96,0.00,,,0.00,meteohub,2013-04-09 08:45:00,
2013-04-09 04:50:00,48.9,47.8,29.97,East,97,3.0,5.0,96,0.00,,,0.00,meteohub,2013-04-09 08:50:00,
2013-04-09 04:55:00,48.9,47.8,29.97,SE,128,3.0,5.0,96,0.00,,,0.00,meteohub,2013-04-09 08:55:00,
2013-04-09 05:01:00,48.9,47.8,29.97,SSE,167,0.0,5.0,96,0.00,,,0.00,meteohub,2013-04-09 09:01:00,
2013-04-09 05:06:00,48.9,47.8,29.98,SSW,194,1.0,5.0,96,0.00,,,0.00,meteohub,2013-04-09 09:06:00,
2013-04-09 05:11:00,48.9,47.8,29.97,ESE,113,2.0,5.0,96,0.00,,,0.00,meteohub,2013-04-09 09:11:00,
2013-04-09 05:16:00,48.9,47.8,29.97,South,181,0.0,4.0,96,0.00,,,0.00,meteohub,2013-04-09 09:16:00,
2013-04-09 05:22:00,48.9,47.8,29.97,ESE,110,1.0,7.0,96,0.00,,,0.00,meteohub,2013-04-09 09:22:00,
2013-04-09 05:27:00,48.9,47.8,29.97,SE,124,3.0,7.0,96,0.00,,,0.00,meteohub,2013-04-09 09:27:00,
2013-04-09 05:32:00,49.1,48.0,29.97,SE,135,2.0,7.0,96,0.00,,,0.00,meteohub,2013-04-09 09:32:00,
2013-04-09 05:37:00,49.1,48.0,29.97,SE,146,1.0,7.0,96,0.00,,,0.00,meteohub,2013-04-09 09:37:00,
2013-04-09 05:42:00,49.1,48.0,29.97,SE,132,1.0,7.0,96,0.00,,,0.00,meteohub,2013-04-09 09:42:00,
2013-04-09 05:47:00,49.3,48.2,29.97,South,180,3.0,6.0,96,0.00,,,0.00,meteohub,2013-04-09 09:47:00,
2013-04-09 05:52:00,49.3,48.2,29.96,SSE,156,2.0,9.0,96,0.00,,,0.00,meteohub,2013-04-09 09:52:00,
2013-04-09 05:57:00,49.3,48.2,29.97,SSW,197,1.0,9.0,96,0.00,,,0.00,meteohub,2013-04-09 09:57:00,
2013-04-09 06:02:00,49.3,48.2,29.97,SSW,212,3.0,9.0,96,0.00,,,0.00,meteohub,2013-04-09 10:02:00,
2013-04-09 06:07:00,49.3,48.2,29.97,SW,229,1.0,5.0,96,0.00,,,0.00,meteohub,2013-04-09 10:07:00,
2013-04-09 06:12:00,49.3,48.2,29.97,South,179,2.0,5.0,96,0.00,,,0.00,meteohub,2013-04-09 10:12:00,
2013-04-09 06:17:00,49.3,48.2,29.97,SW,219,0.0,5.0,96,0.00,,,0.00,meteohub,2013-04-09 10:17:00,
2013-04-09 06:22:00,49.3,48.2,29.98,WSW,250,0.0,5.0,96,0.00,,,0.00,meteohub,2013-04-09 10:22:00,
2013-04-09 06:27:00,49.1,48.0,29.98,WSW,238,1.0,5.0,96,0.00,,,0.00,meteohub,2013-04-09 10:27:00,
2013-04-09 06:32:00,49.1,48.0,29.98,West,281,0.0,4.0,96,0.00,,,0.00,meteohub,2013-04-09 10:32:00,
2013-04-09 06:37:00,49.1,48.0,29.98,SW,231,0.0,4.0,96,0.00,,,0.00,meteohub,2013-04-09 10:37:00,
2013-04-09 06:42:00,49.3,48.2,29.98,SSW,203,0.0,3.0,96,0.00,,,0.00,meteohub,2013-04-09 10:42:00,
2013-04-09 06:47:00,49.3,48.2,29.98,SW,236,2.0,3.0,96,0.00,,,0.00,meteohub,2013-04-09 10:47:00,
2013-04-09 06:52:00,49.5,48.4,29.98,WSW,238,1.0,6.0,96,0.00,,,0.00,meteohub,2013-04-09 10:52:00,
2013-04-09 06:57:00,49.5,48.4,29.98,SW,233,0.0,6.0,96,0.00,,,0.00,meteohub,2013-04-09 10:57:00,
2013-04-09 07:02:00,49.6,48.6,29.98,SW,227,1.0,6.0,96,0.00,,,0.00,meteohub,2013-04-09 11:02:00,
2013-04-09 07:07:00,49.6,48.6,29.98,SSW,201,0.0,4.0,96,0.00,,,0.00,meteohub,2013-04-09 11:07:00,
2013-04-09 07:12:00,49.6,48.6,29.98,West,274,0.0,3.0,96,0.00,,,0.00,meteohub,2013-04-09 11:12:00,
2013-04-09 07:17:00,49.6,48.6,29.98,SW,226,0.0,3.0,96,0.00,,,0.00,meteohub,2013-04-09 11:17:00,
2013-04-09 07:22:00,49.8,48.7,29.98,WSW,243,0.0,3.0,96,0.00,,,0.00,meteohub,2013-04-09 11:22:00,
2013-04-09 07:27:00,49.8,48.7,29.98,SW,219,0.0,3.0,96,0.00,,,0.00,meteohub,2013-04-09 11:27:00,
2013-04-09 07:32:00,50.0,48.9,29.98,WSW,241,0.0,3.0,96,0.00,,,0.00,meteohub,2013-04-09 11:32:00,
2013-04-09 07:37:00,50.2,49.1,29.98,SSW,203,2.0,3.0,96,0.00,,,0.00,meteohub,2013-04-09 11:37:00,
2013-04-09 07:42:00,50.4,49.3,29.98,SW,228,0.0,2.0,96,0.00,,,0.00,meteohub,2013-04-09 11:42:00,
2013-04-09 07:47:00,50.7,49.6,29.98,SSW,194,0.0,3.0,96,0.00,,,0.00,meteohub,2013-04-09 11:47:00,
2013-04-09 07:52:00,51.1,50.0,29.98,WSW,239,0.0,3.0,96,0.00,,,0.00,meteohub,2013-04-09 11:52:00,
2013-04-09 07:58:00,51.4,50.4,29.98,SSE,158,1.0,3.0,96,0.00,,,0.00,meteohub,2013-04-09 11:58:00,
2013-04-09 08:03:00,52.0,50.5,29.98,SW,233,2.0,3.0,95,0.00,,,0.00,meteohub,2013-04-09 12:03:00,
2013-04-09 08:08:00,52.3,50.9,29.98,WSW,243,0.0,3.0,95,0.00,,,0.00,meteohub,2013-04-09 12:08:00,
2013-04-09 08:13:00,52.2,50.2,29.98,WSW,252,1.0,3.0,93,0.00,,,0.00,meteohub,2013-04-09 12:13:00,
2013-04-09 08:18:00,52.2,50.2,29.97,West,267,0.0,3.0,93,0.00,,,0.00,meteohub,2013-04-09 12:18:00,
2013-04-09 08:23:00,52.2,49.8,29.98,WSW,255,1.0,4.0,92,0.00,,,0.00,meteohub,2013-04-09 12:23:00,
2013-04-09 08:28:00,52.3,50.0,29.97,WNW,290,1.0,4.0,92,0.00,,,0.00,meteohub,2013-04-09 12:28:00,
2013-04-09 08:33:00,52.9,50.5,29.97,SW,229,3.0,5.0,92,0.00,,,0.00,meteohub,2013-04-09 12:33:00,
2013-04-09 08:38:00,53.4,50.9,29.97,WSW,238,1.0,5.0,91,0.00,,,0.00,meteohub,2013-04-09 12:38:00,
2013-04-09 08:43:00,53.2,50.0,29.97,West,277,1.0,5.0,89,0.00,,,0.00,meteohub,2013-04-09 12:43:00,
2013-04-09 08:48:00,53.1,50.2,29.96,West,273,1.0,5.0,90,0.00,,,0.00,meteohub,2013-04-09 12:48:00,
2013-04-09 08:53:00,53.2,50.0,29.97,West,276,1.0,4.0,89,0.00,,,0.00,meteohub,2013-04-09 12:53:00,
2013-04-09 08:58:00,53.4,50.2,29.96,WNW,283,1.0,4.0,89,0.00,,,0.00,meteohub,2013-04-09 12:58:00,
2013-04-09 09:03:00,54.0,50.7,29.96,WNW,285,0.0,3.0,89,0.00,,,0.00,meteohub,2013-04-09 13:03:00,
2013-04-09 09:08:00,54.1,50.9,29.96,SW,224,1.0,3.0,89,0.00,,,0.00,meteohub,2013-04-09 13:08:00,
2013-04-09 09:13:00,54.9,51.1,29.96,West,269,2.0,5.0,87,0.00,,,0.00,meteohub,2013-04-09 13:13:00,
2013-04-09 09:18:00,55.0,51.3,29.96,WSW,254,1.0,5.0,87,0.00,,,0.00,meteohub,2013-04-09 13:18:00,
2013-04-09 09:23:00,54.9,50.4,29.96,West,280,1.0,5.0,85,0.00,,,0.00,meteohub,2013-04-09 13:23:00,
2013-04-09 09:28:00,54.5,50.4,29.96,West,281,0.0,3.0,86,0.00,,,0.00,meteohub,2013-04-09 13:28:00,
2013-04-09 09:33:00,54.5,50.4,29.96,WSW,257,3.0,4.0,86,0.00,,,0.00,meteohub,2013-04-09 13:33:00,
2013-04-09 09:38:00,54.7,50.5,29.96,WSW,253,1.0,5.0,86,0.00,,,0.00,meteohub,2013-04-09 13:38:00,
2013-04-09 09:43:00,54.1,49.8,29.96,West,275,1.0,5.0,85,0.00,,,0.00,meteohub,2013-04-09 13:43:00,
2013-04-09 09:48:00,53.2,48.9,29.96,WNW,290,2.0,5.0,85,0.00,,,0.00,meteohub,2013-04-09 13:48:00,
2013-04-09 09:53:00,53.1,49.3,29.96,WNW,285,0.0,5.0,87,0.00,,,0.00,meteohub,2013-04-09 13:53:00,
2013-04-09 09:58:00,53.1,49.3,29.96,West,269,2.0,3.0,87,0.00,,,0.00,meteohub,2013-04-09 13:58:00,
2013-04-09 10:03:00,52.5,48.4,29.96,WNW,288,1.0,3.0,86,0.00,,,0.00,meteohub,2013-04-09 14:03:00,
2013-04-09 10:08:00,52.5,48.4,29.96,NW,307,1.0,2.0,86,0.00,,,0.00,meteohub,2013-04-09 14:08:00,
2013-04-09 10:13:00,51.8,47.7,29.96,NW,312,2.0,2.0,86,0.00,,,0.00,meteohub,2013-04-09 14:13:00,
2013-04-09 10:19:00,51.6,48.2,29.96,NW,316,1.0,3.0,88,0.00,,,0.00,meteohub,2013-04-09 14:19:00,
2013-04-09 10:24:00,51.4,48.0,29.96,NW,323,1.0,3.0,88,0.00,,,0.00,meteohub,2013-04-09 14:24:00,
2013-04-09 10:29:00,51.3,47.8,29.97,NNW,340,2.0,3.0,88,0.00,,,0.00,meteohub,2013-04-09 14:29:00,
2013-04-09 10:34:00,50.5,47.5,29.96,NNW,347,1.0,2.0,89,0.00,,,0.00,meteohub,2013-04-09 14:34:00,
2013-04-09 10:39:00,50.7,47.8,29.97,NW,308,2.0,3.0,90,0.00,,,0.00,meteohub,2013-04-09 14:39:00,
2013-04-09 10:44:00,51.1,48.2,29.97,WNW,287,2.0,3.0,90,0.00,,,0.00,meteohub,2013-04-09 14:44:00,
2013-04-09 10:49:00,52.2,49.1,29.96,WNW,287,4.0,4.0,89,0.00,,,0.00,meteohub,2013-04-09 14:49:00,
2013-04-09 10:54:00,52.9,49.1,29.96,West,262,3.0,4.0,87,0.00,,,0.00,meteohub,2013-04-09 14:54:00,
2013-04-09 10:59:00,53.6,49.3,29.96,WNW,284,3.0,5.0,85,0.00,,,0.00,meteohub,2013-04-09 14:59:00,
2013-04-09 11:05:00,53.8,49.1,29.96,West,276,2.0,6.0,84,0.00,,,0.00,meteohub,2013-04-09 15:05:00,
2013-04-09 11:10:00,54.3,49.3,29.96,West,273,3.0,6.0,83,0.00,,,0.00,meteohub,2013-04-09 15:10:00,
2013-04-09 11:15:00,54.9,49.5,29.96,WNW,282,3.0,8.0,82,0.00,,,0.00,meteohub,2013-04-09 15:15:00,
2013-04-09 11:20:00,55.9,49.8,29.96,WSW,255,7.0,9.0,80,0.00,,,0.00,meteohub,2013-04-09 15:20:00,
2013-04-09 11:25:00,56.5,49.6,29.96,West,269,6.0,9.0,78,0.00,,,0.00,meteohub,2013-04-09 15:25:00,
2013-04-09 11:30:00,57.0,49.5,29.96,West,268,6.0,10.0,76,0.00,,,0.00,meteohub,2013-04-09 15:30:00,
2013-04-09 11:35:00,57.7,49.8,29.96,WNW,282,4.0,10.0,75,0.00,,,0.00,meteohub,2013-04-09 15:35:00,
2013-04-09 11:40:00,58.5,50.2,29.96,West,259,5.0,10.0,74,0.00,,,0.00,meteohub,2013-04-09 15:40:00,
2013-04-09 11:45:00,59.0,50.4,29.96,WSW,246,6.0,12.0,73,0.00,,,0.00,meteohub,2013-04-09 15:45:00,
2013-04-09 11:50:00,59.4,50.4,29.96,West,263,7.0,12.0,72,0.00,,,0.00,meteohub,2013-04-09 15:50:00,
2013-04-09 11:55:00,59.9,50.5,29.95,WSW,248,8.0,11.0,71,0.00,,,0.00,meteohub,2013-04-09 15:55:00,
2013-04-09 12:00:00,60.4,51.1,29.95,WNW,287,10.0,12.0,71,0.00,,,0.00,meteohub,2013-04-09 16:00:00,
2013-04-09 12:05:00,60.4,50.2,29.96,West,273,5.0,12.0,69,0.00,,,0.00,meteohub,2013-04-09 16:05:00,
2013-04-09 12:10:00,60.1,49.8,29.96,West,269,6.0,12.0,69,0.00,,,0.00,meteohub,2013-04-09 16:10:00,
2013-04-09 12:15:00,59.4,49.6,29.96,West,269,7.0,12.0,70,0.00,,,0.00,meteohub,2013-04-09 16:15:00,
2013-04-09 12:20:00,59.5,50.2,29.96,West,273,5.0,12.0,71,0.00,,,0.00,meteohub,2013-04-09 16:20:00,
2013-04-09 12:25:00,60.1,49.8,29.96,WSW,253,8.0,11.0,69,0.00,,,0.00,meteohub,2013-04-09 16:25:00,
2013-04-09 12:30:00,61.0,50.4,29.95,WSW,241,7.0,12.0,68,0.00,,,0.00,meteohub,2013-04-09 16:30:00,
2013-04-09 12:35:00,61.5,50.0,29.95,West,262,11.0,12.0,66,0.00,,,0.00,meteohub,2013-04-09 16:35:00,
2013-04-09 12:40:00,62.2,50.0,29.95,West,266,7.0,15.0,64,0.00,,,0.00,meteohub,2013-04-09 16:40:00,
2013-04-09 12:45:00,62.4,49.6,29.94,WNW,290,6.0,15.0,63,0.00,,,0.00,meteohub,2013-04-09 16:45:00,
2013-04-09 12:50:00,62.2,49.5,29.95,WSW,256,7.0,15.0,63,0.00,,,0.00,meteohub,2013-04-09 16:50:00,
2013-04-09 12:55:00,62.1,49.3,29.95,West,270,7.0,12.0,63,0.00,,,0.00,meteohub,2013-04-09 16:55:00,
2013-04-09 13:00:00,61.9,49.1,29.95,WNW,293,6.0,11.0,63,0.00,,,0.00,meteohub,2013-04-09 17:00:00,
2013-04-09 13:05:00,61.3,49.1,29.95,WNW,297,5.0,11.0,64,0.00,,,0.00,meteohub,2013-04-09 17:05:00,
2013-04-09 13:10:00,61.5,48.7,29.95,West,262,5.0,11.0,63,0.00,,,0.00,meteohub,2013-04-09 17:10:00,
2013-04-09 13:15:00,61.3,49.1,29.95,WNW,296,6.0,11.0,64,0.00,,,0.00,meteohub,2013-04-09 17:15:00,
2013-04-09 13:20:00,61.2,48.4,29.95,SW,236,11.0,11.0,63,0.00,,,0.00,meteohub,2013-04-09 17:20:00,
2013-04-09 13:25:00,61.0,48.4,29.95,West,278,7.0,11.0,63,0.00,,,0.00,meteohub,2013-04-09 17:25:00,
2013-04-09 13:30:00,61.0,48.4,29.95,West,280,7.0,13.0,63,0.00,,,0.00,meteohub,2013-04-09 17:30:00,
2013-04-09 13:35:00,61.2,48.4,29.94,West,269,7.0,13.0,63,0.00,,,0.00,meteohub,2013-04-09 17:35:00,
2013-04-09 13:40:00,62.1,48.0,29.94,WNW,297,9.0,13.0,60,0.00,,,0.00,meteohub,2013-04-09 17:40:00,
2013-04-09 13:46:00,62.2,48.2,29.95,West,268,7.0,12.0,60,0.00,,,0.00,meteohub,2013-04-09 17:46:00,
2013-04-09 13:51:00,61.5,48.0,29.95,West,281,6.0,12.0,61,0.00,,,0.00,meteohub,2013-04-09 17:51:00,
2013-04-09 13:56:00,61.3,47.8,29.95,WSW,240,7.0,12.0,61,0.00,,,0.00,meteohub,2013-04-09 17:56:00,
2013-04-09 14:01:00,60.6,47.5,29.95,West,275,8.0,11.0,62,0.00,,,0.00,meteohub,2013-04-09 18:01:00,
2013-04-09 14:06:00,59.5,46.9,29.95,West,271,6.0,11.0,63,0.00,,,0.00,meteohub,2013-04-09 18:06:00,
2013-04-09 14:11:00,59.0,47.3,29.95,West,273,7.0,11.0,65,0.00,,,0.00,meteohub,2013-04-09 18:11:00,
2013-04-09 14:16:00,57.7,46.4,29.95,West,281,7.0,11.0,66,0.00,,,0.00,meteohub,2013-04-09 18:16:00,
2013-04-09 14:21:00,57.2,46.8,29.95,WNW,283,7.0,11.0,68,0.00,,,0.00,meteohub,2013-04-09 18:21:00,
2013-04-09 14:26:00,57.7,47.3,29.95,WNW,296,6.0,10.0,68,0.00,,,0.00,meteohub,2013-04-09 18:26:00,
2013-04-09 14:31:00,57.9,46.6,29.95,WNW,282,9.0,9.0,66,0.00,,,0.00,meteohub,2013-04-09 18:31:00,
2013-04-09 14:37:00,57.4,46.9,29.95,WNW,283,6.0,9.0,68,0.00,,,0.00,meteohub,2013-04-09 18:37:00,
2013-04-09 14:42:00,57.2,46.8,29.96,SW,226,3.0,9.0,68,0.00,,,0.00,meteohub,2013-04-09 18:42:00,
2013-04-09 14:47:00,59.4,47.7,29.95,West,277,6.0,15.0,65,0.00,,,0.00,meteohub,2013-04-09 18:47:00,
2013-04-09 14:52:00,60.4,47.3,29.96,West,263,4.0,15.0,62,0.00,,,0.00,meteohub,2013-04-09 18:52:00,
2013-04-09 14:57:00,60.8,47.3,29.96,West,262,7.0,15.0,61,0.00,,,0.00,meteohub,2013-04-09 18:57:00,
2013-04-09 15:02:00,59.4,46.4,29.95,WNW,287,6.0,13.0,62,0.00,,,0.00,meteohub,2013-04-09 19:02:00,
2013-04-09 15:07:00,58.5,45.9,29.95,West,274,6.0,11.0,63,0.00,,,0.00,meteohub,2013-04-09 19:07:00,
2013-04-09 15:12:00,58.8,45.9,29.95,West,266,7.0,11.0,62,0.00,,,0.00,meteohub,2013-04-09 19:12:00,
2013-04-09 15:17:00,59.4,46.4,29.96,SSW,213,5.0,10.0,62,0.00,,,0.00,meteohub,2013-04-09 19:17:00,
2013-04-09 15:22:00,59.7,46.8,29.96,West,281,7.0,12.0,62,0.00,,,0.00,meteohub,2013-04-09 19:22:00,
2013-04-09 15:27:00,60.1,45.7,29.96,West,268,8.0,12.0,59,0.00,,,0.00,meteohub,2013-04-09 19:27:00,
2013-04-09 15:32:00,59.9,45.5,29.96,West,266,6.0,12.0,59,0.00,,,0.00,meteohub,2013-04-09 19:32:00,
2013-04-09 15:37:00,59.9,45.1,29.95,West,274,6.0,11.0,58,0.00,,,0.00,meteohub,2013-04-09 19:37:00,
2013-04-09 15:42:00,59.7,45.3,29.95,West,276,4.0,11.0,59,0.00,,,0.00,meteohub,2013-04-09 19:42:00,
2013-04-09 15:47:00,59.5,45.1,29.95,West,267,6.0,10.0,59,0.00,,,0.00,meteohub,2013-04-09 19:47:00,
2013-04-09 15:52:00,59.5,45.1,29.96,West,281,5.0,10.0,59,0.00,,,0.00,meteohub,2013-04-09 19:52:00,
2013-04-09 15:57:00,59.4,45.0,29.96,West,280,6.0,10.0,59,0.00,,,0.00,meteohub,2013-04-09 19:57:00,
2013-04-09 16:02:00,59.5,45.1,29.95,West,278,6.0,10.0,59,0.00,,,0.00,meteohub,2013-04-09 20:02:00,
2013-04-09 16:07:00,61.2,44.8,29.95,West,280,7.0,12.0,55,0.00,,,0.00,meteohub,2013-04-09 20:07:00,
2013-04-09 16:12:00,61.2,44.8,29.96,WSW,256,4.0,15.0,55,0.00,,,0.00,meteohub,2013-04-09 20:12:00,
2013-04-09 16:17:00,61.0,44.8,29.95,WSW,238,6.0,15.0,55,0.00,,,0.00,meteohub,2013-04-09 20:17:00,
2013-04-09 16:22:00,60.4,44.6,29.96,West,277,4.0,15.0,56,0.00,,,0.00,meteohub,2013-04-09 20:22:00,
2013-04-09 16:27:00,61.0,45.1,29.96,West,271,6.0,11.0,56,0.00,,,0.00,meteohub,2013-04-09 20:27:00,
2013-04-09 16:32:00,61.5,44.8,29.96,West,270,5.0,10.0,54,0.00,,,0.00,meteohub,2013-04-09 20:32:00,
2013-04-09 16:37:00,61.2,44.8,29.96,West,271,10.0,10.0,55,0.00,,,0.00,meteohub,2013-04-09 20:37:00,
2013-04-09 16:42:00,60.3,45.0,29.96,West,281,7.0,10.0,57,0.00,,,0.00,meteohub,2013-04-09 20:42:00,
2013-04-09 16:47:00,60.1,44.8,29.96,West,270,8.0,12.0,57,0.00,,,0.00,meteohub,2013-04-09 20:47:00,
2013-04-09 16:52:00,61.2,44.4,29.96,WNW,300,7.0,12.0,54,0.00,,,0.00,meteohub,2013-04-09 20:52:00,
2013-04-09 16:58:00,62.4,44.6,29.96,WNW,288,5.0,14.0,52,0.00,,,0.00,meteohub,2013-04-09 20:58:00,
2013-04-09 17:03:00,63.7,44.8,29.96,West,280,4.0,14.0,50,0.00,,,0.00,meteohub,2013-04-09 21:03:00,
2013-04-09 17:08:00,64.4,44.2,29.96,West,281,5.0,14.0,48,0.00,,,0.00,meteohub,2013-04-09 21:08:00,
2013-04-09 17:13:00,64.8,44.1,29.96,WNW,290,5.0,10.0,47,0.00,,,0.00,meteohub,2013-04-09 21:13:00,
2013-04-09 17:18:00,64.6,44.4,29.96,NW,307,5.0,10.0,48,0.00,,,0.00,meteohub,2013-04-09 21:18:00,
2013-04-09 17:23:00,64.8,44.1,29.96,WNW,284,5.0,10.0,47,0.00,,,0.00,meteohub,2013-04-09 21:23:00,
2013-04-09 17:28:00,64.6,44.4,29.96,WSW,256,5.0,9.0,48,0.00,,,0.00,meteohub,2013-04-09 21:28:00,
2013-04-09 17:33:00,63.5,43.5,29.96,West,276,5.0,9.0,48,0.00,,,0.00,meteohub,2013-04-09 21:33:00,
2013-04-09 17:38:00,63.1,43.7,29.96,WNW,287,5.0,9.0,49,0.00,,,0.00,meteohub,2013-04-09 21:38:00,
2013-04-09 17:43:00,63.1,43.7,29.96,WNW,289,5.0,8.0,49,0.00,,,0.00,meteohub,2013-04-09 21:43:00,
2013-04-09 17:48:00,63.5,44.1,29.97,WNW,284,8.0,8.0,49,0.00,,,0.00,meteohub,2013-04-09 21:48:00,
2013-04-09 17:53:00,63.1,44.8,29.98,West,281,6.0,8.0,51,0.00,,,0.00,meteohub,2013-04-09 21:53:00,
2013-04-09 17:58:00,63.0,44.1,29.97,West,274,5.0,8.0,50,0.00,,,0.00,meteohub,2013-04-09 21:58:00,
2013-04-09 18:03:00,62.6,43.7,29.98,West,274,4.0,8.0,50,0.00,,,0.00,meteohub,2013-04-09 22:03:00,
2013-04-09 18:08:00,63.3,43.9,29.99,West,271,4.0,8.0,49,0.00,,,0.00,meteohub,2013-04-09 22:08:00,
2013-04-09 18:13:00,63.9,43.7,29.99,West,278,5.0,8.0,48,0.00,,,0.00,meteohub,2013-04-09 22:13:00,
2013-04-09 18:18:00,64.0,43.9,29.99,SW,226,4.0,8.0,48,0.00,,,0.00,meteohub,2013-04-09 22:18:00,
2013-04-09 18:23:00,64.2,43.5,29.99,WSW,252,4.0,8.0,47,0.00,,,0.00,meteohub,2013-04-09 22:23:00,
2013-04-09 18:28:00,64.2,43.5,29.98,West,273,3.0,8.0,47,0.00,,,0.00,meteohub,2013-04-09 22:28:00,
2013-04-09 18:33:00,63.9,43.2,29.98,WNW,282,4.0,8.0,47,0.00,,,0.00,meteohub,2013-04-09 22:33:00,
2013-04-09 18:38:00,63.7,43.7,29.99,WNW,288,3.0,8.0,48,0.00,,,0.00,meteohub,2013-04-09 22:38:00,
2013-04-09 18:43:00,64.6,43.9,29.99,West,267,4.0,8.0,47,0.00,,,0.00,meteohub,2013-04-09 22:43:00,
2013-04-09 18:48:00,65.7,43.7,29.99,WNW,283,4.0,8.0,45,0.00,,,0.00,meteohub,2013-04-09 22:48:00,
2013-04-09 18:53:00,66.2,43.0,29.99,West,270,2.0,9.0,43,0.00,,,0.00,meteohub,2013-04-09 22:53:00,
2013-04-09 18:58:00,66.0,42.8,29.99,WSW,255,3.0,9.0,43,0.00,,,0.00,meteohub,2013-04-09 22:58:00,
2013-04-09 19:03:00,65.8,42.8,29.99,WNW,283,3.0,6.0,43,0.00,,,0.00,meteohub,2013-04-09 23:03:00,
2013-04-09 19:08:00,64.9,43.2,29.99,West,274,2.0,5.0,45,0.00,,,0.00,meteohub,2013-04-09 23:08:00,
2013-04-09 19:13:00,63.9,42.6,29.99,West,281,2.0,5.0,46,0.00,,,0.00,meteohub,2013-04-09 23:13:00,
2013-04-09 19:19:00,62.8,42.8,29.99,West,269,1.0,5.0,48,0.00,,,0.00,meteohub,2013-04-09 23:19:00,
2013-04-09 19:24:00,61.9,43.0,29.99,West,267,2.0,3.0,50,0.00,,,0.00,meteohub,2013-04-09 23:24:00,
2013-04-09 19:29:00,62.6,42.6,29.99,West,263,2.0,3.0,48,0.00,,,0.00,meteohub,2013-04-09 23:29:00,
2013-04-09 19:34:00,62.8,42.8,29.99,WSW,243,3.0,3.0,48,0.00,,,0.00,meteohub,2013-04-09 23:34:00,
2013-04-09 19:39:00,63.3,42.3,29.99,West,280,2.0,5.0,46,0.00,,,0.00,meteohub,2013-04-09 23:39:00,
2013-04-09 19:44:00,65.5,42.4,29.99,West,280,1.0,5.0,43,0.00,,,0.00,meteohub,2013-04-09 23:44:00,
2013-04-09 19:49:00,66.4,42.6,29.99,WSW,255,1.0,5.0,42,0.00,,,0.00,meteohub,2013-04-09 23:49:00,
2013-04-09 19:50:00,66.0,42.3,29.99,West,267,2.0,4.0,42,0.00,,,0.00,meteohub,2013-04-09 23:50:00,
2013-04-09 19:57:00,66.6,41.5,29.99,WNW,289,2.0,4.0,40,0.00,,,0.00,meteohub,2013-04-09 23:57:00,
2013-04-09 20:02:00,66.9,41.9,29.99,WNW,297,1.0,4.0,40,0.00,,,0.00,meteohub,2013-04-10 00:02:00,
2013-04-09 20:07:00,66.6,42.1,29.99,NE,54,0.0,4.0,41,0.00,,,0.00,meteohub,2013-04-10 00:07:00,
2013-04-09 20:12:00,65.7,42.6,29.99,NE,53,1.0,4.0,43,0.00,,,0.00,meteohub,2013-04-10 00:12:00,
2013-04-09 20:17:00,63.5,42.3,30.00,NE,40,3.0,4.0,46,0.00,,,0.00,meteohub,2013-04-10 00:17:00,
2013-04-09 20:22:00,63.1,42.1,30.00,NNE,29,2.0,5.0,46,0.00,,,0.00,meteohub,2013-04-10 00:22:00,
2013-04-09 20:27:00,63.7,41.9,30.00,North,3,1.0,5.0,45,0.00,,,0.00,meteohub,2013-04-10 00:27:00,
2013-04-09 20:32:00,63.5,42.3,30.01,NNE,15,2.0,4.0,46,0.00,,,0.00,meteohub,2013-04-10 00:32:00,
2013-04-09 20:37:00,62.6,42.1,30.01,NNE,15,1.0,4.0,47,0.00,,,0.00,meteohub,2013-04-10 00:37:00,
2013-04-09 20:42:00,62.6,42.1,30.01,NNE,16,1.0,3.0,47,0.00,,,0.00,meteohub,2013-04-10 00:42:00,
2013-04-09 20:47:00,63.1,42.1,30.02,NNE,13,1.0,3.0,46,0.00,,,0.00,meteohub,2013-04-10 00:47:00,
2013-04-09 20:52:00,63.3,42.8,30.02,South,177,2.0,3.0,47,0.00,,,0.00,meteohub,2013-04-10 00:52:00,
2013-04-09 20:57:00,61.9,42.4,30.03,SSW,203,4.0,7.0,49,0.00,,,0.00,meteohub,2013-04-10 00:57:00,
2013-04-09 21:02:00,61.9,43.0,30.02,ESE,105,1.0,7.0,50,0.00,,,0.00,meteohub,2013-04-10 01:02:00,
2013-04-09 21:07:00,62.8,43.3,30.02,ENE,70,3.0,7.0,49,0.00,,,0.00,meteohub,2013-04-10 01:07:00,
2013-04-09 21:12:00,63.3,43.9,30.02,East,82,1.0,5.0,49,0.00,,,0.00,meteohub,2013-04-10 01:12:00,
2013-04-09 21:17:00,63.0,43.5,30.03,ESE,115,4.0,5.0,49,0.00,,,0.00,meteohub,2013-04-10 01:17:00,
2013-04-09 21:22:00,62.2,43.3,30.03,SE,138,2.0,5.0,50,0.00,,,0.00,meteohub,2013-04-10 01:22:00,
2013-04-09 21:27:00,62.2,43.3,30.03,SE,132,3.0,4.0,50,0.00,,,0.00,meteohub,2013-04-10 01:27:00,
2013-04-09 21:32:00,62.2,42.8,30.03,SE,131,2.0,4.0,49,0.00,,,0.00,meteohub,2013-04-10 01:32:00,
2013-04-09 21:38:00,62.2,42.8,30.03,SE,135,2.0,4.0,49,0.00,,,0.00,meteohub,2013-04-10 01:38:00,
2013-04-09 21:43:00,61.7,42.8,30.02,SE,131,3.0,4.0,50,0.00,,,0.00,meteohub,2013-04-10 01:43:00,
2013-04-09 21:48:00,61.2,43.3,30.02,SE,129,4.0,4.0,52,0.00,,,0.00,meteohub,2013-04-10 01:48:00,
2013-04-09 21:53:00,61.0,43.7,30.03,SE,132,2.0,5.0,53,0.00,,,0.00,meteohub,2013-04-10 01:53:00,
2013-04-09 21:58:00,60.6,43.9,30.02,SE,131,2.0,5.0,54,0.00,,,0.00,meteohub,2013-04-10 01:58:00,
2013-04-09 22:03:00,60.4,43.7,30.02,SE,131,2.0,5.0,54,0.00,,,0.00,meteohub,2013-04-10 02:03:00,
2013-04-09 22:08:00,61.2,43.9,30.02,SE,131,2.0,4.0,53,0.00,,,0.00,meteohub,2013-04-10 02:08:00,
2013-04-09 22:13:00,61.5,43.7,30.02,SE,127,1.0,4.0,52,0.00,,,0.00,meteohub,2013-04-10 02:13:00,
2013-04-09 22:18:00,62.1,43.7,30.02,SE,132,1.0,3.0,51,0.00,,,0.00,meteohub,2013-04-10 02:18:00,
2013-04-09 22:23:00,62.2,43.3,30.01,ESE,115,1.0,2.0,50,0.00,,,0.00,meteohub,2013-04-10 02:23:00,
2013-04-09 22:28:00,62.2,43.3,30.02,SE,129,2.0,3.0,50,0.00,,,0.00,meteohub,2013-04-10 02:28:00,
2013-04-09 22:33:00,62.1,43.7,30.02,SE,135,1.0,3.0,51,0.00,,,0.00,meteohub,2013-04-10 02:33:00,
2013-04-09 22:38:00,61.9,43.5,30.02,SE,142,1.0,4.0,51,0.00,,,0.00,meteohub,2013-04-10 02:38:00,
2013-04-09 22:43:00,61.7,43.3,30.02,ESE,113,2.0,4.0,51,0.00,,,0.00,meteohub,2013-04-10 02:43:00,
2013-04-09 22:48:00,61.5,43.2,30.02,South,173,6.0,6.0,51,0.00,,,0.00,meteohub,2013-04-10 02:48:00,
2013-04-09 22:53:00,60.3,44.4,30.02,SSE,152,2.0,7.0,56,0.00,,,0.00,meteohub,2013-04-10 02:53:00,
2013-04-09 22:58:00,59.2,45.3,30.02,SSE,153,1.0,7.0,60,0.00,,,0.00,meteohub,2013-04-10 02:58:00,
2013-04-09 23:03:00,58.3,45.7,30.02,SSE,154,1.0,7.0,63,0.00,,,0.00,meteohub,2013-04-10 03:03:00,
2013-04-09 23:08:00,57.7,45.7,30.01,South,178,2.0,5.0,64,0.00,,,0.00,meteohub,2013-04-10 03:08:00,
2013-04-09 23:13:00,57.2,45.5,30.00,SE,143,1.0,5.0,65,0.00,,,0.00,meteohub,2013-04-10 03:13:00,
2013-04-09 23:18:00,56.7,45.5,30.00,SSE,166,3.0,3.0,66,0.00,,,0.00,meteohub,2013-04-10 03:18:00,
2013-04-09 23:23:00,55.9,45.5,29.99,SSE,165,5.0,5.0,68,0.00,,,0.00,meteohub,2013-04-10 03:23:00,
2013-04-09 23:28:00,55.2,46.0,29.99,SE,138,3.0,5.0,71,0.00,,,0.00,meteohub,2013-04-10 03:28:00,
2013-04-09 23:33:00,54.7,46.2,29.97,SE,134,4.0,5.0,73,0.00,,,0.00,meteohub,2013-04-10 03:33:00,
2013-04-09 23:38:00,54.0,46.2,29.97,ESE,121,4.0,5.0,75,0.00,,,0.00,meteohub,2013-04-10 03:38:00,
2013-04-09 23:43:00,53.8,46.4,29.96,SE,135,4.0,6.0,76,0.00,,,0.00,meteohub,2013-04-10 03:43:00,
2013-04-09 23:48:00,53.4,46.4,29.96,ESE,108,2.0,6.0,77,0.00,,,0.00,meteohub,2013-04-10 03:48:00,
2013-04-09 23:53:00,53.1,46.4,29.96,East,94,2.0,6.0,78,0.00,,,0.00,meteohub,2013-04-10 03:53:00,
2013-04-09 23:58:00,52.9,46.6,29.96,SE,134,3.0,6.0,79,0.00,,,0.00,meteohub,2013-04-10 03:58:00,